Location: Newark
(50.0306°N, 2.3272°E)
Time: 07:57:54
(UTC+00:00)

Transit 2A Rocket - Pass Details

Date: 08 December 2019
Orbit: 593 x 910 km, 66.7° (Epoch: 20 January)

Event Time Altitude Azimuth Distance (km) Brightness Sun altitude
Rises 15:57:06 0° 179° (S) 2,974 8.6 -1.9°
Reaches altitude 10° 15:59:48 10° 165° (SSE) 2,022 7.5 -2.3°
Maximum altitude 16:03:21 23° 113° (ESE) 1,325 6.0 -2.7°
Drops below altitude 10° 16:06:46 10° 61° (ENE) 1,952 6.4 -3.2°
Enters shadow 16:08:16 - 51° (NE) 2,459 6.9 -3.4°
Sets 16:09:20 0° 47° (NE) 2,845 - -3.5°
